Regional Weather Roundup
Issued by NWS Lake Charles, LA

Home | Current Version | Previous Version | Text Only | Print | Product List | Glossary On
Versions: 1 2 3 4 5 6 7 8 9 10 11 12 13 14 15 16 17 18 19 20 21 22 23 24 25 26 27 28 29 30 31 32 33 34 35 36 37 38 39 40 41 42 43 44 45 46 47 48
000
ASUS44 KLCH 201610
RWRLCH
RWRLCH
REGIONAL WEATHER ROUNDUP
NATIONAL WEATHER SERVICE LAKE CHARLES LA
1100 AM CDT SAT SEP 20 2014

Note: "fair" indicates few or no clouds below 12,000 feet with no
significant weather and/or obstructions to visibility.


ACROSS SOUTHEAST TEXAS

CITY           SKY/WX    TMP DP  RH WIND       PRES   REMARKS
BEAUMONT       SUNNY     85  71  63 E14       29.98R
BEAUMONT CITY    N/A     83  72  68 E9G18     29.99S
ORANGE         MOSUNNY   82  72  71 E15       30.00S
JASPER         SUNNY     82  69  64 E7        30.03S
$$

ACROSS CENTRAL LOUISIANA

CITY           SKY/WX    TMP DP  RH WIND       PRES   REMARKS
LEESVILLE      SUNNY     82  68  62 E10       30.03R
FULLERTON        N/A     85  70  60 VRB3      30.00S
ALEXANDRIA INT SUNNY     85  70  60 NE6       30.02R
ESLER FIELD    SUNNY     85  70  60 VRB5      30.04R
DERIDDER         N/A     82  69  64 E8        30.04S HAZE
OAKDALE        SUNNY     84  70  63 NE8       30.02R
OPELOUSAS        N/A     83  71  66 E9        30.01R
$$

ACROSS SOUTHWEST AND SOUTH CENTRAL LOUISIANA

CITY           SKY/WX    TMP DP  RH WIND       PRES   REMARKS
SULPHUR        SUNNY     84  72  65 E10G18    30.00R
LAKE CHARLES   SUNNY     83  72  69 E14       29.99R
CHENNAULT INT  MOSUNNY   82  72  69 E14G21    30.00R
CAMERON PHI    SUNNY     84  73  70 E14G20    30.00S
DEQUINCY         N/A     82  71  68 E6        30.01R
JENNINGS         N/A     83  72  69 E12       29.99S
LAFAYETTE      SUNNY     84  72  67 E7        30.00R
NEW IBERIA     SUNNY     85  72  65 E16       30.00R
ABBEVILLE        N/A     83  72  69 E9        29.99R
PATTERSON      PTSUNNY   84  73  70 NE15      30.00S
SALT POINT       N/A     87  74  64 VRB5      29.97R
$$

SELECTED SITES ACROSS THE REGION

CITY           SKY/WX    TMP DP  RH WIND       PRES   REMARKS
HOUSTON BUSH   MOSUNNY   83  72  69 E13       29.97S
HOUSTON HOBBY  MOSUNNY   84  74  71 E10       29.96S
GALVESTON      MOSUNNY   83  76  79 NE15      29.96S
COLLEGE STAT   SUNNY     81  68  64 E8        29.99S
CONROE         SUNNY     82  70  66 VRB3      30.00R
HUNTSVILLE     SUNNY     83  68  60 E6        30.01R
LUFKIN         SUNNY     86  68  54 SE10      30.02R
SHREVEPORT     MOSUNNY   86  69  56 VRB3      30.04R
MONROE         SUNNY     85  71  63 CALM      30.05S
NATCHEZ MS     SUNNY     82  72  69 NE9       30.05S
BATON ROUGE    SUNNY     84  69  60 NE16G22   30.02R
N.O. INTL ARPT MOSUNNY   84  70  62 E15       30.00R
SLIDELL        SUNNY     84  67  56 NE10      30.01R
$$

MARINE REPORTS

STATION/POSITION TIME  TEMP    WIND        PRES    VSBY  WAVE
                       AIR SEA DIR/SP/G                  HT/PER
                 (UTC) (F)     (DEG/KT/KT) (MB)    (MI)  (FT/S)
BUOY 30 S HIGH I 1600   81 84   70/ 16/ 19 1013.8R         4/ 5
SEA RIM ST PARK  1600   81     100/ 14/ 18 1015.4R
PORT ARTHUR      1600      82   80/  8/ 12 1015.4R
SABINE PASS N    1600   81 82  100/ 16/ 21 1015.0S
TEXAS POINT      1600   79 81   80/ 17/ 19 1015.2S
CALCASIEU PASS   1600   81 82  100/ 13/ 18 1016.1F
LK CHARLES BEACH 1600   82 83              1015.7R
MARSH ISLAND     NOT AVBL
FRESH WATER LOCK 1600   82 81   60/ 14/ 19 1015.1R
AMERADA PASS     1600   83 82   90/ 12/ 18 1014.8F
$$


USA.gov is the U.S. government's official web portal to all federal, state and local government web resources and services.